{"data":{"norad_id":62874,"intl_designator":"2025-022W","name":"STARLINK-32793","alt_names":[],"object_type":"PAYLOAD","status":"ACTIVE","operator":null,"country":"US","launch_date":"2025-02-01","launch_site_code":"AFWTR","launch_vehicle":null,"mission":null,"orbit_class":"UNKNOWN","rcs_meters":null,"size_class":null,"mass_kg":null,"dimensions":null,"purposes":["comms"],"wikipedia_slug":null,"has_3d_model":false,"image_url":null,"decayed_at":null,"tle_current":{"epoch":"2026-09-21T09:23:36.540096Z","epoch_age_seconds":91180,"freshness":"FRESH","line1":"1 62874U 25022W   26264.39139514  .00005329  00000+0  16877-3 0  9993","line2":"2 62874  53.1598 297.7193 0000837  70.5231 289.5862 15.34395971 91900","mean_motion":15.34395971,"eccentricity":8.37e-5,"inclination_deg":53.1598,"raan_deg":297.7193,"arg_perigee_deg":70.5231,"mean_anomaly_deg":289.5862,"bstar":0.00016877,"rev_number":9190,"period_min":93.848004505742,"perigee_km":462.14263593996,"apogee_km":463.2877946008,"semimajor_km":6840.8522152704,"source":"CELESTRAK","updated_at":"2026-09-22T09:00:49.701128Z"}}}